FREGAT DEB, 45901

Orbit data source: Space-Track

FREGAT DEB, 45901 is space debris in LEO originally from a launch on Mon, 18 Jul 2011 UTC launched from the Tyuratam Missile And Space Complex (TTMTR). Debris objects in space refer to the collection of defunct objects orbiting the Earth. Examples of debris include non-operational satellites, rocket bodies, and fragments generated from explosions, collisions, or faulty payload assembly.

Loading next visibility...
Identifier
45901, 2011-037DW
Orbit
LEO
Country
Flag of CISCIS
Related business
Manufacturer
Lavochkin
Mission
Spacecraft
Bus & Motor
Unknown
Mass
Unknown
Launch date (UTC)
2011-07-18 (14 years ago)
Launch vehicle
Unknown
Launch site
Tyuratam Missile And Space Complex (TTMTR)
Object type
Payload
Rocket body
Debris
Shape & HBR
Unknown shape, 0.1 m
Radar Cross Section
Small (<0.1 m²)

Expand to show TLE details & history
Last TLE update: 2 weeks ago

TLE from 2 weeks ago
0 FREGAT DEB
1 45901U 11037DW  25288.49366906  .00048577  00000-0  78913-1 0  9999
2 45901  51.5606 345.2339 2093251 239.3343  98.4711 10.30914345 81944
Epoch: 2025-10-15T11:50Z
TLE epoch observation values (Epoch: 2025-10-15T11:50:53.006Z)
Latitude
-0°
Longitude
143.24609°
Altitude
3,171.023 km
Speed
6.23 km/s
True Right ascension
23h 00m 56s
True Declination
0° 00' 00"
Sunlit
Object was in full shadow at epoch
Visualization orbit readout
Latitude
Unknown
Longitude
Unknown
Altitude
Unknown
Speed
Unknown
Apparent Right ascension
Unknown
Apparent Declination
Unknown
Sunlit
N/A
Visualization observer readout
Local Sidereal Time
15:18:00
Azimuth
Unknown
Elevation
Unknown
Doppler factor
Unknown
Orbital elements
Apogee altitude
4,406.792 km
Perigee altitude
673.212 km
Semi-major axis
8,918.139 km
Eccentricity
0.20933
Inclination
51.5606°
RAAN
345.2339°
Arg. of periapsis
239.3343°
True anomaly
120.74418°
Mean anomaly
98.4711°
Eccentric anomaly
109.75845°
Mean motion
2.5771 °/min
Orbital period
139.69 mins
BSTAR
0.078913
Loading maneuver chart data...
Computing Atmospheric mass density...
Loading historical data...
Loading historical data...
Loading historical data...
Loading historical data...
Loading historical data...
Loading historical data...
Loading historical data...

Documentation

Showing up to 5 results
|